SCP
0 0 0 0 0 0 0 0 0 0 0 0 0 0 0 0 0 0 0 -0 0 0 1 1 1 1 1 2 1 1 1 1 1 1 1 1 1 1 1 1 1 1 0 0 0 0 0 0 0
0 0 0 0 0 0 0 0 0 0 0 0 0 0 0 0 0 0 0 0 0 0 1 1 1 1 1 1 1 1 1 1 1 1 1 1 1 1 1 1 1 1 0 0 0 0 0 0 0
0 0 0 0 0 0 0 0 0 0 0 0 0 0 0 0 0 0 0 0 0 1 1 1 0 1 1 1 1 1 1 1 1 1 1 1 1 1 1 1 1 0 0 0 0 0 0 0 0
0 0 0 0 0 0 0 0 0 0 0 0 0 0 0 0 0 0 0 1 1 1 1 1 1 1 1 1 1 1 1 1 1 1 1 1 1 1 1 1 1 0 0 0 0 0 0 0 0
0 0 0 0 0 0 0 0 0 0 0 0 0 0 0 0 0 0 0 1 1 1 1 1 1 1 1 1 1 1 1 1 1 1 1 1 1 1 1 1 1 0 0 0 0 0 0 0 0
0 0 0 0 0 0 0 0 0 0 0 0 0 0 0 0 0 0 0 0 1 1 1 1 1 1 1 1 1 1 1 1 1 1 1 1 1 1 1 0 1 0 0 0 0 0 0 0 0
0 0 0 0 0 0 0 0 0 0 0 0 0 0 0 0 0 0 0 0 1 1 1 1 1 1 1 1 1 1 1 1 1 1 1 1 1 1 1 0 1 0 0 0 0 0 0 0 0
0 0 0 0 0 0 0 0 0 0 0 0 0 0 0 -0 -0 0 0 0 1 2 1 1 1 1 1 1 1 1 1 1 1 1 1 1 1 1 0 0 0 0 0 0 0 0 0 0 0
0 0 0 0 0 0 0 0 0 0 0 0 0 0 0 0 0 0 1 2 2 2 2 2 1 1 1 1 1 0 1 1 1 1 0 0 1 0 0 0 0 0 0 0 0 0 0 0 0
0 0 0 0 0 0 0 0 0 0 0 0 0 0 0 0 0 1 2 3 2 2 2 2 2 1 1 1 1 1 0 0 0 0 0 0 0 0 0 0 0 0 0 0 0 0 0 0 0
0 0 0 0 0 0 0 0 0 0 0 0 0 0 -0 -0 0 0 2 3 2 2 2 2 2 2 1 1 1 0 0 0 0 0 0 0 0 0 0 0 0 0 0 0 0 0 0 0 0
0 0 0 0 0 0 0 0 0 0 0 0 0 -0 -0 -0 0 0 0 1 2 2 2 2 2 2 2 1 1 0 0 0 0 0 0 0 0 0 0 0 0 0 0 0 0 0 0 0 0
0 0 0 0 0 0 0 0 0 0 0 0 0 0 0 -0 0 -0 0 1 1 1 2 2 2 2 2 1 1 0 0 0 0 0 0 0 0 0 0 0 0 0 0 0 0 0 0 0 0
0 0 0 0 0 0 0 0 0 -0 0 0 0 0 0 0 -0 -0 0 0 1 1 2 3 2 2 2 2 1 0 0 0 0 0 0 0 0 0 0 0 0 0 0 0 0 0 0 0 0
0 0 0 0 0 0 0 0 0 -0 -0 -0 0 0 0 0 -0 -0 0 0 1 2 2 3 3 2 2 2 1 0 0 0 0 0 0 0 0 0 0 0 0 0 0 0 0 0 0 0 0
0 0 0 0 0 0 0 0 0 0 -0 -0 -0 0 0 0 0 -0 -0 0 0 1 1 2 3 2 2 1 1 0 0 0 0 0 0 0 0 0 0 0 0 0 0 0 0 0 0 0 0
0 0 0 -0 -0 0 0 0 0 0 0 -0 -0 0 0 0 0 0 -0 0 0 0 1 2 3 2 2 2 1 0 0 0 0 0 0 0 0 0 0 0 0 0 0 0 0 0 0 0 0
0 0 0 0 -0 0 0 0 0 0 0 0 0 0 0 0 0 0 0 0 -0 0 1 1 2 2 2 2 1 1 0 0 0 0 0 0 0 0 0 0 0 0 0 0 0 0 0 0 0
0 0 0 -0 -0 0 0 0 0 0 0 0 0 0 0 0 -0 -0 0 0 -0 0 0 1 1 1 2 1 0 0 0 0 0 0 0 0 0 0 0 0 0 0 0 0 0 0 0 0 0
0 0 0 0 0 0 0 0 -0 0 0 0 0 0 0 0 0 -0 0 0 0 -0 0 1 1 1 1 1 0 0 0 0 0 0 0 0 0 0 0 0 0 0 0 0 0 0 0 0 0
0 0 0 0 0 0 0 -0 0 -0 0 0 0 0 -0 0 0 0 0 0 0 0 0 1 1 1 1 1 0 0 0 0 0 0 0 0 0 0 0 0 0 0 0 0 0 0 0 0 0
0 0 0 0 0 0 0 0 -0 0 0 0 0 0 0 0 0 0 0 0 0 0 0 0 1 1 1 1 0 0 0 0 0 0 0 0 0 0 0 0 0 0 0 0 0 0 0 0 0
0 -0 0 0 0 0 0 0 0 0 -0 0 0 0 0 0 0 0 0 0 0 0 0 0 1 1 2 1 1 0 0 0 0 0 0 0 0 0 0 0 0 0 0 0 0 0 0 0 0
-0 0 0 0 0 0 0 0 0 0 0 -0 0 0 0 0 0 0 0 0 0 0 0 0 1 2 2 1 1 1 0 0 0 0 0 0 0 0 0 0 0 0 0 0 0 0 0 0 0
0 0 -0 0 0 0 0 0 0 0 -0 0 -0 0 0 0 0 0 0 0 0 0 0 0 0 1 2 1 1 1 1 0 0 0 0 0 0 0 0 0 0 0 0 0 0 0 0 0 0
0 0 0 0 0 0 -0 0 0 0 0 0 0 -0 0 0 0 0 0 0 0 0 0 0 0 0 1 1 1 1 1 1 0 0 0 0 0 0 0 0 0 0 0 0 0 0 0 0 0
0 0 0 0 0 0 0 0 0 0 -0 0 0 0 0 0 0 0 0 0 0 0 0 0 0 0 0 0 0 0 0 0 0 0 0 0 0 0 0 0 0 0 0 0 0 0 0 0 0
0 0 0 0 0 0 0 0 -0 -0 -0 -0 0 0 0 0 0 0 0 0 0 0 0 0 0 0 0 0 0 0 0 0 0 0 0 0 0 0 0 0 0 0 0 0 0 0 0 0 0
0 0 0 0 0 0 0 0 -0 -0 -0 -0 -0 -0 0 0 0 0 0 0 0 0 0 0 0 0 0 0 0 0 0 0 0 0 0 0 0 0 0 0 0 0 0 0 0 0 0 0 0
0 0 0 0 0 0 0 0 -0 -0 -0 0 0 -0 0 0 0 0 0 0 0 0 0 0 0 0 0 0 0 0 0 0 0 0 0 0 0 0 0 0 0 0 0 0 0 0 0 0 0
Wind_Speed_500mb
9 14 19 16 4 6 10 16 7 11 8 30 34 13 16 50 18 12 8 19 29 35 51 48 52 59 67 67 68 69 69 66 66 66 63 59 55 53 50 47 46 46 44 44 40 36 33 31 33
8 19 19 7 7 6 17 15 23 47 55 34 36 41 29 25 47 23 22 19 19 24 36 43 49 59 68 68 68 71 70 67 65 67 65 61 58 54 51 48 48 46 45 45 36 36 35 33 33
13 26 14 8 8 25 28 20 48 59 55 46 13 39 36 14 45 36 31 23 25 19 27 39 41 51 67 69 68 71 71 68 65 65 65 62 59 56 53 50 47 44 42 44 36 36 36 36 36
18 14 7 7 33 43 41 8 23 14 41 49 52 19 26 42 43 45 34 31 35 31 34 33 40 50 64 70 69 71 72 70 67 65 64 63 61 58 54 52 48 43 46 43 35 35 37 36 41
24 9 7 11 45 46 28 31 41 24 15 29 30 26 35 69 54 51 40 31 38 37 41 40 39 47 62 70 72 73 73 72 71 67 65 65 63 60 56 54 49 48 50 40 38 39 39 42 43
11 6 5 35 47 54 36 62 31 32 49 72 30 42 58 67 58 41 36 36 29 32 35 43 42 46 60 71 73 74 75 74 74 71 69 68 67 64 61 56 54 56 49 40 39 42 43 42 42
9 5 34 32 44 49 63 47 26 49 60 71 34 31 36 46 43 47 44 43 41 38 39 42 45 49 62 72 73 74 75 76 75 74 72 72 69 65 63 61 57 56 45 44 44 45 45 43 41
13 6 23 29 43 64 58 33 61 55 65 87 65 16 30 51 53 57 49 47 43 48 48 44 49 52 66 72 73 73 74 77 77 76 74 72 70 68 66 63 61 55 52 44 47 47 45 42 40
30 14 35 59 59 54 33 28 65 53 64 66 74 57 44 53 53 54 55 52 48 51 55 53 53 55 66 73 74 71 73 77 79 79 77 72 69 69 65 64 65 59 50 47 50 47 44 43 40
9 20 58 54 36 35 48 51 50 32 60 62 65 77 52 39 36 58 65 61 56 61 61 60 56 54 64 73 73 75 74 74 79 83 81 77 78 76 73 68 62 53 50 55 53 49 46 42 39
10 37 33 50 59 57 54 61 51 49 57 79 54 68 67 59 56 44 63 70 61 60 57 59 64 60 68 76 78 78 76 79 82 83 82 82 77 75 75 68 60 56 59 59 55 52 47 42 39
24 44 51 58 61 51 40 75 49 52 75 67 72 80 72 71 69 60 53 64 62 62 59 63 72 69 67 80 82 83 83 83 84 86 85 86 85 77 71 72 62 60 60 55 52 48 45 43 40
24 35 46 56 67 62 57 54 57 69 84 81 75 79 92 80 74 71 66 57 77 73 72 69 71 73 73 82 89 90 89 87 92 88 83 85 65 70 78 70 68 65 55 54 52 48 45 42 40
28 46 51 55 53 64 51 54 62 75 63 78 77 84 70 73 75 83 77 68 69 80 78 76 78 76 80 81 88 91 92 91 88 86 82 85 81 83 77 71 68 66 65 58 50 47 44 41 39
32 27 35 48 62 51 65 51 57 81 68 67 66 78 73 77 71 84 82 79 55 79 83 75 74 77 78 84 84 92 92 94 86 83 79 75 74 70 65 68 69 65 62 57 55 51 46 43 41
24 23 26 46 37 39 39 44 50 62 59 59 64 66 71 67 62 61 73 81 60 51 64 70 74 82 81 83 82 90 96 93 92 84 85 82 75 62 56 66 67 66 65 60 58 54 49 46 40
9 23 37 51 40 37 34 42 44 62 60 51 52 59 68 64 66 73 56 74 68 51 60 68 73 79 82 81 84 86 93 93 87 76 78 71 70 71 67 64 67 68 66 63 59 56 50 48 43
38 33 43 49 62 35 45 46 47 68 69 57 62 52 46 55 69 76 82 58 74 60 46 61 72 75 80 83 83 88 92 88 85 81 89 76 69 69 62 65 69 70 68 65 61 57 53 46 43
37 36 47 59 56 40 48 44 49 51 50 39 54 55 55 64 67 71 71 83 64 69 78 51 61 73 75 81 87 89 95 99 91 93 89 80 75 77 72 68 70 71 70 67 63 60 55 55 50
39 42 47 53 41 31 35 51 48 46 40 46 45 48 51 60 70 72 63 72 86 58 59 72 62 68 74 81 83 91 92 94 102 98 96 86 78 75 73 76 74 73 71 69 68 67 66 60 58
41 33 43 47 47 39 38 53 39 49 44 60 65 66 65 69 69 78 72 59 72 70 64 55 64 72 73 77 74 75 86 83 89 95 95 99 88 77 68 72 75 77 73 72 72 71 69 68 64
34 22 40 48 32 29 15 28 38 26 29 29 32 53 58 69 72 79 77 68 63 76 70 67 63 74 78 75 73 76 80 90 95 95 92 96 92 85 79 74 76 78 78 78 74 72 71 69 68
24 36 36 46 40 27 13 11 2 10 12 23 29 47 59 65 73 73 74 68 68 65 59 69 67 71 83 84 79 78 87 94 95 89 87 94 96 91 86 81 78 76 75 77 77 75 74 75 73
33 20 46 8 5 2 15 13 9 12 23 31 26 43 34 48 64 69 70 64 60 61 58 57 68 80 84 82 80 78 83 87 91 84 84 95 105 95 93 88 84 78 78 76 76 78 78 77 75
11 14 8 11 8 11 14 17 5 21 30 27 34 32 37 30 8 13 23 46 53 53 54 58 62 78 85 81 82 76 72 81 88 78 75 74 78 109 106 98 90 88 83 79 78 78 81 81 79
13 7 3 14 13 33 29 8 9 17 21 36 40 42 34 30 27 21 5 14 27 35 44 50 59 76 75 79 81 76 80 83 85 81 79 89 89 102 100 105 90 94 89 87 79 78 81 81 80
13 4 9 11 7 5 9 6 13 41 31 31 31 41 42 40 31 27 17 8 14 22 27 38 45 58 65 69 71 72 77 85 85 88 81 76 84 88 98 102 95 95 93 90 84 81 81 83 82
8 10 7 4 10 11 10 4 15 41 37 35 32 30 43 48 35 30 31 21 16 15 15 22 37 48 49 58 58 60 66 72 77 81 81 76 74 77 80 81 93 97 96 94 88 86 83 80 83
9 2 4 5 7 6 8 7 11 23 26 28 25 37 41 44 43 30 37 34 28 18 11 14 25 41 44 45 51 52 54 54 60 68 74 78 74 72 74 70 74 79 87 92 91 90 85 83 82
10 5 8 4 9 6 6 8 7 13 21 24 25 38 42 43 45 37 43 41 37 30 15 9 16 26 31 40 46 50 53 52 62 64 61 60 65 69 73 63 65 68 74 80 87 92 91 85 86
Wind_Direction_500mb
279 211 187 168 91 74 237 238 256 257 255 221 222 196 209 234 220 222 286 178 212 210 206 205 206 202 198 195 191 191 189 186 184 183 181 179 182 181 181 181 181 180 177 171 165 162 162 160 157
245 197 180 164 139 213 239 202 222 233 226 228 244 257 276 259 248 238 249 234 208 210 217 210 206 203 202 200 195 192 190 188 187 187 185 184 183 183 181 181 181 180 179 179 175 172 165 163 157
211 188 167 156 196 227 243 202 224 237 244 241 265 255 260 235 263 239 235 221 207 196 213 216 214 206 203 201 199 195 192 191 189 189 189 187 186 186 183 182 183 184 182 181 173 169 167 166 161
192 191 247 195 227 242 239 237 233 277 271 247 255 268 241 269 259 247 239 219 212 233 232 216 216 214 208 203 198 197 194 193 193 192 191 190 189 187 187 184 185 186 182 182 177 174 169 165 158
202 197 209 227 242 249 235 250 258 270 269 249 240 255 266 269 269 250 236 221 210 220 223 219 222 221 212 205 198 196 196 195 195 194 193 192 193 188 189 188 186 185 182 181 181 174 170 163 161
227 210 208 229 237 246 251 246 252 250 260 263 254 262 268 267 264 244 231 229 217 216 224 220 222 223 214 206 199 196 197 197 197 196 194 195 195 191 189 192 189 185 186 185 182 175 168 164 163
200 168 230 241 244 257 247 240 232 242 252 258 265 278 269 267 286 250 229 228 227 229 227 226 223 221 214 204 201 198 197 198 199 198 198 196 196 194 191 194 192 188 189 183 179 174 169 168 169
244 241 254 245 247 253 257 258 250 247 262 264 262 239 271 283 287 252 230 220 223 236 232 231 226 218 208 205 203 202 200 199 200 200 200 197 196 196 193 194 193 190 187 183 177 175 174 175 178
260 239 237 239 241 245 281 269 267 281 283 283 278 283 282 300 292 255 216 208 211 224 222 226 224 212 208 206 202 203 203 202 200 202 199 197 196 195 196 197 193 193 181 182 179 178 180 180 182
218 239 239 251 267 263 280 275 284 304 284 278 279 275 282 286 311 240 222 219 212 220 217 223 223 214 207 208 206 202 203 205 203 201 199 195 195 196 197 198 197 188 182 183 183 183 184 187 192
242 253 274 272 288 296 294 285 294 258 262 261 279 283 289 288 288 284 242 236 230 226 221 220 218 213 204 207 205 207 203 206 207 202 198 196 195 197 196 195 188 187 182 185 185 185 189 194 197
289 279 286 290 290 292 290 294 289 288 271 278 274 275 282 284 285 282 270 248 233 222 224 219 219 215 216 212 210 208 207 205 207 202 202 200 198 198 197 193 186 186 185 189 190 192 194 193 192
275 284 283 291 296 291 287 280 285 276 285 291 285 281 272 273 274 277 274 270 248 232 221 219 221 218 221 219 214 210 208 207 206 206 206 201 184 204 202 190 191 185 194 193 194 195 194 191 190
274 279 281 282 280 287 285 280 277 275 285 289 286 284 285 270 269 274 274 279 259 240 229 222 222 222 216 223 220 215 211 210 212 203 200 199 197 196 193 189 190 189 189 194 197 196 194 193 193
275 291 286 278 271 273 277 280 271 280 279 276 268 275 278 277 272 267 265 265 286 248 235 226 221 222 219 220 220 218 211 215 213 203 197 209 204 202 206 196 193 192 191 192 192 193 194 196 195
284 286 281 272 272 265 261 274 280 285 286 274 268 273 274 273 275 275 266 257 262 263 239 230 228 227 223 222 221 220 218 214 215 207 203 205 206 199 218 198 197 195 195 194 194 195 195 199 200
202 275 281 285 269 270 264 273 274 274 278 279 277 266 264 274 272 267 273 260 261 262 238 230 227 226 224 227 221 222 222 218 218 212 206 208 209 207 206 202 201 201 198 197 197 197 202 201 201
291 284 280 276 285 281 276 270 269 274 274 273 265 263 274 275 266 267 261 266 258 254 258 233 228 225 226 227 225 227 222 219 217 216 210 210 213 219 212 207 205 204 202 200 201 202 199 205 206
276 273 273 276 276 274 271 273 267 266 264 262 263 255 255 265 263 268 266 260 261 256 254 246 228 225 223 221 219 211 219 214 215 212 213 210 215 214 216 210 209 208 207 207 205 202 204 198 200
284 280 283 283 286 281 280 268 261 261 251 247 247 254 254 259 264 263 260 261 254 255 246 243 231 226 223 223 221 217 222 221 217 214 214 212 212 214 218 216 209 211 211 209 208 208 202 206 205
284 277 285 286 301 286 270 272 260 258 254 255 258 254 249 250 255 263 263 252 251 253 249 244 234 229 227 224 221 224 226 227 210 218 219 212 210 211 215 221 216 211 214 216 213 212 212 212 207
286 298 294 289 296 294 27 292 284 258 256 253 254 248 244 246 245 252 262 255 245 247 247 251 243 231 229 222 225 226 229 212 220 221 216 220 213 208 210 214 224 220 215 213 219 219 218 217 218
278 307 293 292 288 289 300 252 201 296 316 347 326 275 250 247 249 245 253 258 252 246 250 252 248 238 228 221 225 232 226 226 225 221 218 221 218 210 210 213 214 224 224 221 219 219 222 222 222
310 301 303 344 304 304 262 182 318 14 339 341 334 352 289 251 245 240 247 251 255 253 253 264 245 238 225 219 222 227 228 222 227 224 218 219 217 212 214 216 217 219 223 228 226 224 224 227 228
32 342 312 342 349 238 278 290 347 2 355 342 334 350 356 2 352 243 239 238 247 251 256 259 243 228 224 220 222 224 229 225 232 226 220 219 232 216 213 221 219 221 222 225 227 232 228 227 230
291 268 334 306 321 302 300 234 114 27 358 346 344 350 3 8 31 36 14 186 215 234 233 235 226 217 217 219 222 226 229 230 237 237 232 230 230 229 228 221 225 225 225 225 226 230 236 234 231
292 338 262 273 292 339 275 43 233 356 356 357 349 356 357 2 26 38 51 133 145 183 197 206 206 203 204 211 218 224 230 230 232 237 239 237 237 235 230 230 228 227 230 230 228 232 234 236 236
155 304 329 344 303 311 304 36 331 348 347 351 351 356 357 355 8 47 55 69 85 144 172 179 189 196 197 204 210 213 221 230 234 238 234 235 236 237 236 236 235 232 233 232 233 234 239 236 239
340 317 311 263 242 270 304 277 334 356 336 341 348 351 353 352 4 44 65 61 65 91 132 155 165 179 187 196 207 215 221 221 224 233 238 242 243 240 238 237 238 239 238 237 235 236 239 239 237
185 240 290 258 289 253 279 267 22 358 338 347 355 355 358 360 15 43 67 63 57 58 58 100 135 165 184 199 207 213 218 226 232 233 238 238 238 240 243 240 238 240 241 240 238 236 238 240 239
Wind_Speed_850mb
9 14 19 16 4 6 10 16 7 11 8 30 34 13 16 50 18 12 8 19 29 35 51 48 52 59 67 67 68 69 69 66 66 66 63 59 55 53 50 47 46 46 44 44 40 36 33 31 33
8 19 19 7 7 6 17 15 23 47 55 34 36 41 29 25 47 23 22 19 19 24 36 43 49 59 68 68 68 71 70 67 65 67 65 61 58 54 51 48 48 46 45 45 36 36 35 33 33
13 26 14 8 8 25 28 20 48 59 55 46 13 39 36 14 45 36 31 23 25 19 27 39 41 51 67 69 68 71 71 68 65 65 65 62 59 56 53 50 47 44 42 44 36 36 36 36 36
18 14 7 7 33 43 41 8 23 14 41 49 52 19 26 42 43 45 34 31 35 31 34 33 40 50 64 70 69 71 72 70 67 65 64 63 61 58 54 52 48 43 46 43 35 35 37 36 41
24 9 7 11 45 46 28 31 41 24 15 29 30 26 35 69 54 51 40 31 38 37 41 40 39 47 62 70 72 73 73 72 71 67 65 65 63 60 56 54 49 48 50 40 38 39 39 42 43
11 6 5 35 47 54 36 62 31 32 49 72 30 42 58 67 58 41 36 36 29 32 35 43 42 46 60 71 73 74 75 74 74 71 69 68 67 64 61 56 54 56 49 40 39 42 43 42 42
9 5 34 32 44 49 63 47 26 49 60 71 34 31 36 46 43 47 44 43 41 38 39 42 45 49 62 72 73 74 75 76 75 74 72 72 69 65 63 61 57 56 45 44 44 45 45 43 41
13 6 23 29 43 64 58 33 61 55 65 87 65 16 30 51 53 57 49 47 43 48 48 44 49 52 66 72 73 73 74 77 77 76 74 72 70 68 66 63 61 55 52 44 47 47 45 42 40
30 14 35 59 59 54 33 28 65 53 64 66 74 57 44 53 53 54 55 52 48 51 55 53 53 55 66 73 74 71 73 77 79 79 77 72 69 69 65 64 65 59 50 47 50 47 44 43 40
9 20 58 54 36 35 48 51 50 32 60 62 65 77 52 39 36 58 65 61 56 61 61 60 56 54 64 73 73 75 74 74 79 83 81 77 78 76 73 68 62 53 50 55 53 49 46 42 39
10 37 33 50 59 57 54 61 51 49 57 79 54 68 67 59 56 44 63 70 61 60 57 59 64 60 68 76 78 78 76 79 82 83 82 82 77 75 75 68 60 56 59 59 55 52 47 42 39
24 44 51 58 61 51 40 75 49 52 75 67 72 80 72 71 69 60 53 64 62 62 59 63 72 69 67 80 82 83 83 83 84 86 85 86 85 77 71 72 62 60 60 55 52 48 45 43 40
24 35 46 56 67 62 57 54 57 69 84 81 75 79 92 80 74 71 66 57 77 73 72 69 71 73 73 82 89 90 89 87 92 88 83 85 65 70 78 70 68 65 55 54 52 48 45 42 40
28 46 51 55 53 64 51 54 62 75 63 78 77 84 70 73 75 83 77 68 69 80 78 76 78 76 80 81 88 91 92 91 88 86 82 85 81 83 77 71 68 66 65 58 50 47 44 41 39
32 27 35 48 62 51 65 51 57 81 68 67 66 78 73 77 71 84 82 79 55 79 83 75 74 77 78 84 84 92 92 94 86 83 79 75 74 70 65 68 69 65 62 57 55 51 46 43 41
24 23 26 46 37 39 39 44 50 62 59 59 64 66 71 67 62 61 73 81 60 51 64 70 74 82 81 83 82 90 96 93 92 84 85 82 75 62 56 66 67 66 65 60 58 54 49 46 40
9 23 37 51 40 37 34 42 44 62 60 51 52 59 68 64 66 73 56 74 68 51 60 68 73 79 82 81 84 86 93 93 87 76 78 71 70 71 67 64 67 68 66 63 59 56 50 48 43
38 33 43 49 62 35 45 46 47 68 69 57 62 52 46 55 69 76 82 58 74 60 46 61 72 75 80 83 83 88 92 88 85 81 89 76 69 69 62 65 69 70 68 65 61 57 53 46 43
37 36 47 59 56 40 48 44 49 51 50 39 54 55 55 64 67 71 71 83 64 69 78 51 61 73 75 81 87 89 95 99 91 93 89 80 75 77 72 68 70 71 70 67 63 60 55 55 50
39 42 47 53 41 31 35 51 48 46 40 46 45 48 51 60 70 72 63 72 86 58 59 72 62 68 74 81 83 91 92 94 102 98 96 86 78 75 73 76 74 73 71 69 68 67 66 60 58
41 33 43 47 47 39 38 53 39 49 44 60 65 66 65 69 69 78 72 59 72 70 64 55 64 72 73 77 74 75 86 83 89 95 95 99 88 77 68 72 75 77 73 72 72 71 69 68 64
34 22 40 48 32 29 15 28 38 26 29 29 32 53 58 69 72 79 77 68 63 76 70 67 63 74 78 75 73 76 80 90 95 95 92 96 92 85 79 74 76 78 78 78 74 72 71 69 68
24 36 36 46 40 27 13 11 2 10 12 23 29 47 59 65 73 73 74 68 68 65 59 69 67 71 83 84 79 78 87 94 95 89 87 94 96 91 86 81 78 76 75 77 77 75 74 75 73
33 20 46 8 5 2 15 13 9 12 23 31 26 43 34 48 64 69 70 64 60 61 58 57 68 80 84 82 80 78 83 87 91 84 84 95 105 95 93 88 84 78 78 76 76 78 78 77 75
11 14 8 11 8 11 14 17 5 21 30 27 34 32 37 30 8 13 23 46 53 53 54 58 62 78 85 81 82 76 72 81 88 78 75 74 78 109 106 98 90 88 83 79 78 78 81 81 79
13 7 3 14 13 33 29 8 9 17 21 36 40 42 34 30 27 21 5 14 27 35 44 50 59 76 75 79 81 76 80 83 85 81 79 89 89 102 100 105 90 94 89 87 79 78 81 81 80
13 4 9 11 7 5 9 6 13 41 31 31 31 41 42 40 31 27 17 8 14 22 27 38 45 58 65 69 71 72 77 85 85 88 81 76 84 88 98 102 95 95 93 90 84 81 81 83 82
8 10 7 4 10 11 10 4 15 41 37 35 32 30 43 48 35 30 31 21 16 15 15 22 37 48 49 58 58 60 66 72 77 81 81 76 74 77 80 81 93 97 96 94 88 86 83 80 83
9 2 4 5 7 6 8 7 11 23 26 28 25 37 41 44 43 30 37 34 28 18 11 14 25 41 44 45 51 52 54 54 60 68 74 78 74 72 74 70 74 79 87 92 91 90 85 83 82
10 5 8 4 9 6 6 8 7 13 21 24 25 38 42 43 45 37 43 41 37 30 15 9 16 26 31 40 46 50 53 52 62 64 61 60 65 69 73 63 65 68 74 80 87 92 91 85 86
Wind_Direction_850mb
279 211 187 168 91 74 237 238 256 257 255 221 222 196 209 234 220 222 286 178 212 210 206 205 206 202 198 195 191 191 189 186 184 183 181 179 182 181 181 181 181 180 177 171 165 162 162 160 157
245 197 180 164 139 213 239 202 222 233 226 228 244 257 276 259 248 238 249 234 208 210 217 210 206 203 202 200 195 192 190 188 187 187 185 184 183 183 181 181 181 180 179 179 175 172 165 163 157
211 188 167 156 196 227 243 202 224 237 244 241 265 255 260 235 263 239 235 221 207 196 213 216 214 206 203 201 199 195 192 191 189 189 189 187 186 186 183 182 183 184 182 181 173 169 167 166 161
192 191 247 195 227 242 239 237 233 277 271 247 255 268 241 269 259 247 239 219 212 233 232 216 216 214 208 203 198 197 194 193 193 192 191 190 189 187 187 184 185 186 182 182 177 174 169 165 158
202 197 209 227 242 249 235 250 258 270 269 249 240 255 266 269 269 250 236 221 210 220 223 219 222 221 212 205 198 196 196 195 195 194 193 192 193 188 189 188 186 185 182 181 181 174 170 163 161
227 210 208 229 237 246 251 246 252 250 260 263 254 262 268 267 264 244 231 229 217 216 224 220 222 223 214 206 199 196 197 197 197 196 194 195 195 191 189 192 189 185 186 185 182 175 168 164 163
200 168 230 241 244 257 247 240 232 242 252 258 265 278 269 267 286 250 229 228 227 229 227 226 223 221 214 204 201 198 197 198 199 198 198 196 196 194 191 194 192 188 189 183 179 174 169 168 169
244 241 254 245 247 253 257 258 250 247 262 264 262 239 271 283 287 252 230 220 223 236 232 231 226 218 208 205 203 202 200 199 200 200 200 197 196 196 193 194 193 190 187 183 177 175 174 175 178
260 239 237 239 241 245 281 269 267 281 283 283 278 283 282 300 292 255 216 208 211 224 222 226 224 212 208 206 202 203 203 202 200 202 199 197 196 195 196 197 193 193 181 182 179 178 180 180 182
218 239 239 251 267 263 280 275 284 304 284 278 279 275 282 286 311 240 222 219 212 220 217 223 223 214 207 208 206 202 203 205 203 201 199 195 195 196 197 198 197 188 182 183 183 183 184 187 192
242 253 274 272 288 296 294 285 294 258 262 261 279 283 289 288 288 284 242 236 230 226 221 220 218 213 204 207 205 207 203 206 207 202 198 196 195 197 196 195 188 187 182 185 185 185 189 194 197
289 279 286 290 290 292 290 294 289 288 271 278 274 275 282 284 285 282 270 248 233 222 224 219 219 215 216 212 210 208 207 205 207 202 202 200 198 198 197 193 186 186 185 189 190 192 194 193 192
275 284 283 291 296 291 287 280 285 276 285 291 285 281 272 273 274 277 274 270 248 232 221 219 221 218 221 219 214 210 208 207 206 206 206 201 184 204 202 190 191 185 194 193 194 195 194 191 190
274 279 281 282 280 287 285 280 277 275 285 289 286 284 285 270 269 274 274 279 259 240 229 222 222 222 216 223 220 215 211 210 212 203 200 199 197 196 193 189 190 189 189 194 197 196 194 193 193
275 291 286 278 271 273 277 280 271 280 279 276 268 275 278 277 272 267 265 265 286 248 235 226 221 222 219 220 220 218 211 215 213 203 197 209 204 202 206 196 193 192 191 192 192 193 194 196 195
284 286 281 272 272 265 261 274 280 285 286 274 268 273 274 273 275 275 266 257 262 263 239 230 228 227 223 222 221 220 218 214 215 207 203 205 206 199 218 198 197 195 195 194 194 195 195 199 200
202 275 281 285 269 270 264 273 274 274 278 279 277 266 264 274 272 267 273 260 261 262 238 230 227 226 224 227 221 222 222 218 218 212 206 208 209 207 206 202 201 201 198 197 197 197 202 201 201
291 284 280 276 285 281 276 270 269 274 274 273 265 263 274 275 266 267 261 266 258 254 258 233 228 225 226 227 225 227 222 219 217 216 210 210 213 219 212 207 205 204 202 200 201 202 199 205 206
276 273 273 276 276 274 271 273 267 266 264 262 263 255 255 265 263 268 266 260 261 256 254 246 228 225 223 221 219 211 219 214 215 212 213 210 215 214 216 210 209 208 207 207 205 202 204 198 200
284 280 283 283 286 281 280 268 261 261 251 247 247 254 254 259 264 263 260 261 254 255 246 243 231 226 223 223 221 217 222 221 217 214 214 212 212 214 218 216 209 211 211 209 208 208 202 206 205
284 277 285 286 301 286 270 272 260 258 254 255 258 254 249 250 255 263 263 252 251 253 249 244 234 229 227 224 221 224 226 227 210 218 219 212 210 211 215 221 216 211 214 216 213 212 212 212 207
286 298 294 289 296 294 27 292 284 258 256 253 254 248 244 246 245 252 262 255 245 247 247 251 243 231 229 222 225 226 229 212 220 221 216 220 213 208 210 214 224 220 215 213 219 219 218 217 218
278 307 293 292 288 289 300 252 201 296 316 347 326 275 250 247 249 245 253 258 252 246 250 252 248 238 228 221 225 232 226 226 225 221 218 221 218 210 210 213 214 224 224 221 219 219 222 222 222
310 301 303 344 304 304 262 182 318 14 339 341 334 352 289 251 245 240 247 251 255 253 253 264 245 238 225 219 222 227 228 222 227 224 218 219 217 212 214 216 217 219 223 228 226 224 224 227 228
32 342 312 342 349 238 278 290 347 2 355 342 334 350 356 2 352 243 239 238 247 251 256 259 243 228 224 220 222 224 229 225 232 226 220 219 232 216 213 221 219 221 222 225 227 232 228 227 230
291 268 334 306 321 302 300 234 114 27 358 346 344 350 3 8 31 36 14 186 215 234 233 235 226 217 217 219 222 226 229 230 237 237 232 230 230 229 228 221 225 225 225 225 226 230 236 234 231
292 338 262 273 292 339 275 43 233 356 356 357 349 356 357 2 26 38 51 133 145 183 197 206 206 203 204 211 218 224 230 230 232 237 239 237 237 235 230 230 228 227 230 230 228 232 234 236 236
155 304 329 344 303 311 304 36 331 348 347 351 351 356 357 355 8 47 55 69 85 144 172 179 189 196 197 204 210 213 221 230 234 238 234 235 236 237 236 236 235 232 233 232 233 234 239 236 239
340 317 311 263 242 270 304 277 334 356 336 341 348 351 353 352 4 44 65 61 65 91 132 155 165 179 187 196 207 215 221 221 224 233 238 242 243 240 238 237 238 239 238 237 235 236 239 239 237
185 240 290 258 289 253 279 267 22 358 338 347 355 355 358 360 15 43 67 63 57 58 58 100 135 165 184 199 207 213 218 226 232 233 238 238 238 240 243 240 238 240 241 240 238 236 238 240 239